Deptford, New Jersey, United States
Lat: 39.83N, Lon: 75.13W
Wx Zone: NJZ017
Local Info
Past Weather Observations for Monday, April 13, 2015

NOTE: This archive is for the closest National Weather Service station to Deptford. Information may differ from the station used for current weather conditions.

Click here for Long-term Archive

Time Weather Temperature Dewpoint Humidity Pressure Winds Precip Visibility
23:54
Clear
61°F / 16°C 52°F / 11°C 72% 30.15 in
(1021 mb)
SW 10.4 mph
(SW 17 kph)
- 10SM
22:54
Partly Cloudy
61°F / 16°C 50°F / 10°C 68% 30.18 in
(1022 mb)
SSE 8.1 mph
(SSE 13 kph)
- 10SM
21:54
Mostly Cloudy
63°F / 17°C 48°F / 9°C 59% 30.18 in
(1022 mb)
SW 9.2 mph
(SW 15 kph)
- 10SM
20:54
Mostly Cloudy
64°F / 18°C 46°F / 8°C 52% 30.18 in
(1022 mb)
S 12.7 mph
(S 20 kph)
- 10SM
19:54
Partly Cloudy
64°F / 18°C 46°F / 8°C 52% 30.18 in
(1022 mb)
S 15 mph
(S 24 kph)
- 10SM
18:54
Partly Cloudy
66°F / 19°C 46°F / 8°C 49% 30.18 in
(1022 mb)
S 13.8 mph
(S 22 kph)
- 10SM
17:54
Partly Cloudy
70°F / 21°C 46°F / 8°C 43% 30.15 in
(1021 mb)
SSE 13.8 mph
(SSE 22 kph)
- 10SM
16:54
Mostly Cloudy
72°F / 22°C 46°F / 8°C 41% 30.18 in
(1022 mb)
S 15 mph
(S 24 kph)
- 10SM
15:54
Mostly Cloudy
73°F / 23°C 48°F / 9°C 41% 30.18 in
(1022 mb)
S 16.1 mph
(S 26 kph)
- 10SM
14:54
Mostly Cloudy
73°F / 23°C 50°F / 10°C 44% 30.21 in
(1023 mb)
S 17.3 mph
(S 28 kph)
- 10SM
13:54
Mostly Cloudy
73°F / 23°C 48°F / 9°C 41% 30.21 in
(1023 mb)
SSE 16.1 mph
(SSE 26 kph)
- 10SM
12:54
Partly Cloudy
73°F / 23°C 48°F / 9°C 41% 30.27 in
(1025 mb)
SW 16.1 mph
(SW 26 kph)
- 10SM
11:54
Partly Cloudy
70°F / 21°C 48°F / 9°C 46% 30.3 in
(1026 mb)
SW 16.1 mph
(SW 26 kph)
- 10SM
10:54
Mostly Cloudy
70°F / 21°C 45°F / 7°C 40% 30.3 in
(1026 mb)
SW 16.1 mph
(SW 26 kph)
- 10SM
09:54
Partly Cloudy
64°F / 18°C 39°F / 4°C 40% 30.33 in
(1027 mb)
S 12.7 mph
(S 20 kph)
- 10SM
08:54
Mostly Cloudy
57°F / 14°C 41°F / 5°C 55% 30.36 in
(1028 mb)
S 5.8 mph
(S 9 kph)
- 10SM
07:54
Mostly Cloudy
52°F / 11°C 41°F / 5°C 67% 30.39 in
(1029 mb)
Calm - 10SM
06:54
Overcast
48°F / 9°C 39°F / 4°C 71% 30.36 in
(1028 mb)
Calm - 10SM
05:54
Overcast
46°F / 8°C 37°F / 3°C 71% 30.36 in
(1028 mb)
Calm - 10SM
04:54
Overcast
45°F / 7°C 37°F / 3°C 76% 30.33 in
(1027 mb)
SSE 4.6 mph
(SSE 7 kph)
- 10SM
03:54
Clear
45°F / 7°C 37°F / 3°C 76% 30.33 in
(1027 mb)
Calm - 10SM
02:54
Partly Cloudy
45°F / 7°C 39°F / 4°C 81% 30.33 in
(1027 mb)
Calm - 10SM
01:54
Clear
45°F / 7°C 37°F / 3°C 76% 30.33 in
(1027 mb)
Calm - 10SM
00:54
Clear
46°F / 8°C 37°F / 3°C 71% 30.33 in
(1027 mb)
Calm - 10SM
Time Weather Temperature Dewpoint Humidity Pressure Winds Precip Visibility


Weather for websites

WeatherForYou.com, LLC is not responsible for any damages or problems caused by this service. Current weather conditions are obtained from the closest station including government and personal stations which may have varying degrees of accuracy. Weather forecasts are derived from the NOAA NDFD. Like all things, this site belongs to Jesus Christ... He just trusts me to maintain it. If you have any questions or comments email webmaster@weatherforyou.com

Copyright © 2015, WeatherForYou.com LLC. All rights reserved.